| time (UTC) | temp F | wind direction | speed knots | gust knots | rain 1hr in | rain 24hr in | rain mn in | humidity % | barometer mb |
| 20260905084541 | 76 | 12 | 0.0 | 0.0 | 0.00 | 0.00 | 0.00 | 65 | 1006.4 |
| 20260905083040 | 76 | 3 | 0.0 | 0.0 | 0.00 | 0.00 | 0.00 | 67 | 1006.5 |
| 20260905081538 | 76 | 3 | 0.0 | 0.0 | 0.00 | 0.00 | 0.00 | 67 | 1006.5 |
| 20260905080107 | 76 | 3 | 0.0 | 0.0 | 0.00 | 0.00 | 0.00 | 65 | 1006.6 |
| 20260905074537 | 76 | 3 | 0.0 | 0.0 | 0.00 | 0.00 | 0.00 | 67 | 1006.6 |
| 20260905073033 | 77 | 3 | 0.0 | 0.0 | 0.00 | 0.00 | 0.00 | 66 | 1006.6 |
| 20260905071531 | 78 | 3 | 0.0 | 0.0 | 0.00 | 0.00 | 0.00 | 62 | 1006.6 |
| 20260905070031 | 79 | 3 | 0.0 | 0.0 | 0.00 | 0.00 | 0.00 | 61 | 1006.5 |
| 20260905064525 | 78 | 353 | 0.0 | 0.0 | 0.00 | 0.00 | 0.00 | 62 | 1006.6 |
| 20260905063025 | 80 | 353 | 0.0 | 0.9 | 0.00 | 0.00 | 0.00 | 60 | 1006.5 |
| 20260905061526 | 79 | 353 | 0.0 | 0.9 | 0.00 | 0.00 | 0.00 | 61 | 1006.4 |
| 20260905060039 | 80 | 353 | 0.0 | 0.9 | 0.00 | 0.00 | 0.00 | 58 | 1006.5 |
| 20260905054523 | 81 | 103 | 0.0 | 1.7 | 0.00 | 0.00 | 0.00 | 55 | 1006.5 |
| 20260905053023 | 82 | 91 | 0.0 | 0.0 | 0.00 | 0.00 | 0.00 | 54 | 1006.2 |
| 20260905051525 | 82 | 91 | 0.0 | 0.9 | 0.00 | 0.00 | 0.00 | 53 | 1006.2 |
| 20260905050026 | 83 | 91 | 0.0 | 0.9 | 0.00 | 0.00 | 0.00 | 52 | 1006.1 |
| 20260905044523 | 84 | 92 | 0.0 | 2.6 | 0.00 | 0.00 | 0.00 | 45 | 1006.0 |
| 20260905043021 | 84 | 101 | 1.7 | 4.3 | 0.00 | 0.00 | 0.00 | 40 | 1006.1 |
| 20260905041521 | 83 | 113 | 0.0 | 0.9 | 0.00 | 0.00 | 0.00 | 44 | 1005.9 |
| 20260905040026 | 83 | 333 | 0.0 | 0.0 | 0.00 | 0.00 | 0.00 | 44 | 1005.9 |
| 20260905034519 | 85 | 333 | 0.0 | 0.9 | 0.00 | 0.00 | 0.00 | 40 | 1005.7 |
| 20260905033018 | 85 | 333 | 0.0 | 0.9 | 0.00 | 0.00 | 0.00 | 38 | 1005.5 |
| 20260905031532 | 85 | 319 | 0.9 | 0.9 | 0.00 | 0.00 | 0.00 | 39 | 1005.2 |
| 20260905030018 | 86 | 318 | 0.9 | 1.7 | 0.00 | 0.00 | 0.00 | 37 | 1005.1 |
| 20260905024517 | 86 | 310 | 0.9 | 1.7 | 0.00 | 0.00 | 0.00 | 37 | 1004.9 |
| 20260905023019 | 87 | 310 | 0.9 | 1.7 | 0.00 | 0.00 | 0.00 | 35 | 1004.5 |
| 20260905021529 | 88 | 308 | 0.9 | 1.7 | 0.00 | 0.00 | 0.00 | 34 | 1004.5 |
| 20260905020015 | 89 | 303 | 1.7 | 2.6 | 0.00 | 0.00 | 0.00 | 33 | 1004.3 |
| 20260905014514 | 90 | 316 | 0.9 | 4.3 | 0.00 | 0.00 | 0.00 | 31 | 1004.2 |
| 20260905013015 | 90 | 314 | 2.6 | 6.1 | 0.00 | 0.00 | 0.00 | 32 | 1004.1 |
| 20260905011512 | 91 | 322 | 2.6 | 6.1 | 0.00 | 0.00 | 0.00 | 32 | 1004.0 |
| 20260905010011 | 92 | 299 | 2.6 | 8.7 | 0.00 | 0.00 | 0.00 | 31 | 1004.0 |
| 20260905004513 | 93 | 329 | 4.3 | 7.8 | 0.00 | 0.00 | 0.00 | 31 | 1003.9 |
| 20260905003020 | 93 | 300 | 2.6 | 6.1 | 0.00 | 0.00 | 0.00 | 31 | 1003.8 |
| 20260905001510 | 93 | 321 | 3.5 | 9.6 | 0.00 | 0.00 | 0.00 | 32 | 1003.7 |
| 20260905000009 | 94 | 329 | 5.2 | 11.3 | 0.00 | 0.00 | 0.00 | 29 | 1003.6 |
| 20260904234508 | 94 | 296 | 4.3 | 9.6 | 0.00 | 0.00 | 0.00 | 28 | 1003.5 |
| 20260904233021 | 95 | 297 | 4.3 | 11.3 | 0.00 | 0.00 | 0.00 | 27 | 1003.7 |
| 20260904231508 | 94 | 311 | 5.2 | 11.3 | 0.00 | 0.00 | 0.00 | 27 | 1003.7 |
| 20260904230014 | 94 | 313 | 4.3 | 10.4 | 0.00 | 0.00 | 0.00 | 29 | 1003.8 |
| 20260904224505 | 95 | 337 | 3.5 | 10.4 | 0.00 | 0.00 | 0.00 | 31 | 1003.6 |
| 20260904223004 | 95 | 255 | 3.5 | 7.8 | 0.00 | 0.00 | 0.00 | 32 | 1003.9 |
| 20260904221502 | 95 | 293 | 3.5 | 7.8 | 0.00 | 0.00 | 0.00 | 32 | 1004.0 |
| 20260904220109 | 95 | 346 | 4.3 | 8.7 | 0.00 | 0.00 | 0.00 | 32 | 1004.2 |
| 20260904214559 | 94 | 327 | 2.6 | 7.0 | 0.00 | 0.00 | 0.00 | 32 | 1004.3 |
| 20260904213058 | 95 | 264 | 1.7 | 5.2 | 0.00 | 0.00 | 0.00 | 31 | 1004.6 |
| 20260904211555 | 94 | 276 | 0.9 | 4.3 | 0.00 | 0.00 | 0.00 | 30 | 1004.8 |
| 20260904210057 | 94 | 314 | 1.7 | 5.2 | 0.00 | 0.00 | 0.00 | 30 | 1005.0 |
| 20260904204549 | 93 | 329 | 0.0 | 7.0 | 0.00 | 0.00 | 0.00 | 34 | 1005.0 |
| 20260904203048 | 92 | 327 | 2.6 | 7.0 | 0.00 | 0.00 | 0.00 | 39 | 1005.4 |
| 20260904201555 | 92 | 295 | 5.2 | 7.0 | 0.00 | 0.00 | 0.00 | 38 | 1005.6 |
| 20260904200049 | 93 | 316 | 3.5 | 6.1 | 0.00 | 0.00 | 0.00 | 38 | 1005.8 |
| 20260904194541 | 91 | 281 | 0.9 | 4.3 | 0.00 | 0.00 | 0.00 | 42 | 1006.0 |
| 20260904193045 | 92 | 341 | 0.9 | 5.2 | 0.00 | 0.00 | 0.00 | 42 | 1006.2 |
| 20260904191541 | 91 | 207 | 1.7 | 6.1 | 0.00 | 0.00 | 0.00 | 41 | 1006.6 |
| 20260904190037 | 91 | 238 | 1.7 | 5.2 | 0.00 | 0.00 | 0.00 | 42 | 1006.7 |
| 20260904184541 | 90 | 283 | 1.7 | 4.3 | 0.00 | 0.00 | 0.00 | 45 | 1006.9 |
| 20260904183031 | 89 | 285 | 1.7 | 6.1 | 0.00 | 0.00 | 0.00 | 46 | 1007.1 |
| 20260904181532 | 87 | 285 | 2.6 | 5.2 | 0.00 | 0.00 | 0.00 | 51 | 1007.4 |
| 20260904180024 | 86 | 318 | 1.7 | 6.1 | 0.00 | 0.00 | 0.00 | 52 | 1007.7 |
| 20260904174526 | 85 | 299 | 0.9 | 4.3 | 0.00 | 0.00 | 0.00 | 53 | 1007.8 |
| 20260904173020 | 85 | 309 | 1.7 | 7.0 | 0.00 | 0.00 | 0.00 | 55 | 1007.9 |
| 20260904171525 | 85 | 304 | 0.9 | 7.8 | 0.00 | 0.00 | 0.00 | 57 | 1008.0 |
| 20260904170016 | 84 | 307 | 1.7 | 5.2 | 0.00 | 0.00 | 0.00 | 58 | 1008.1 |
| 20260904164514 | 83 | 302 | 1.7 | 5.2 | 0.00 | 0.00 | 0.00 | 60 | 1008.0 |
| 20260904163018 | 82 | 243 | 0.9 | 6.1 | 0.00 | 0.00 | 0.00 | 61 | 1008.0 |
| 20260904161515 | 82 | 243 | 0.9 | 2.6 | 0.00 | 0.00 | 0.00 | 61 | 1007.9 |
| 20260904160007 | 81 | 339 | 0.0 | 3.5 | 0.00 | 0.00 | 0.00 | 64 | 1007.9 |
| 20260904154509 | 80 | 266 | 0.0 | 2.6 | 0.00 | 0.00 | 0.00 | 65 | 1007.9 |
| 20260904153004 | 80 | 248 | 0.9 | 5.2 | 0.00 | 0.00 | 0.00 | 65 | 1007.9 |
| 20260904151502 | 80 | 312 | 0.0 | 4.3 | 0.00 | 0.00 | 0.00 | 68 | 1007.9 |
| 20260904150002 | 79 | 305 | 0.9 | 2.6 | 0.00 | 0.00 | 0.00 | 68 | 1007.8 |
| 20260904144502 | 78 | 302 | 0.0 | 1.7 | 0.00 | 0.00 | 0.00 | 70 | 1007.9 |
| 20260904143100 | 77 | 317 | 0.9 | 4.3 | 0.00 | 0.00 | 0.00 | 71 | 1007.7 |
| 20260904141602 | 76 | 266 | 0.0 | 0.9 | 0.00 | 0.00 | 0.00 | 74 | 1007.6 |
| 20260904140056 | 75 | 332 | 0.0 | 1.7 | 0.00 | 0.00 | 0.00 | 75 | 1007.5 |
| 20260904134601 | 75 | 332 | 0.0 | 1.7 | 0.00 | 0.00 | 0.00 | 77 | 1007.3 |
| 20260904133053 | 74 | 323 | 0.0 | 0.0 | 0.00 | 0.00 | 0.00 | 79 | 1007.0 |
| 20260904131552 | 74 | 323 | 0.0 | 0.0 | 0.00 | 0.00 | 0.00 | 77 | 1006.8 |
| 20260904130047 | 74 | 323 | 0.0 | 0.0 | 0.00 | 0.00 | 0.00 | 76 | 1006.6 |
| 20260904124555 | 75 | 323 | 0.0 | 0.0 | 0.00 | 0.00 | 0.00 | 72 | 1006.2 |
| 20260904123042 | 76 | 323 | 0.0 | 0.0 | 0.00 | 0.00 | 0.00 | 70 | 1006.0 |
| 20260904121539 | 78 | 323 | 0.0 | 0.9 | 0.00 | 0.00 | 0.00 | 67 | 1005.8 |
| 20260904120043 | 77 | 321 | 0.0 | 2.6 | 0.00 | 0.00 | 0.00 | 68 | 1005.8 |
| 20260904114542 | 77 | 276 | 0.0 | 0.0 | 0.00 | 0.00 | 0.00 | 69 | 1005.7 |
| 20260904113045 | 78 | 275 | 0.0 | 0.0 | 0.00 | 0.00 | 0.00 | 67 | 1005.8 |
| 20260904111535 | 78 | 310 | 1.7 | 3.5 | 0.00 | 0.00 | 0.00 | 67 | 1005.8 |
| 20260904110035 | 78 | 311 | 0.0 | 0.0 | 0.00 | 0.00 | 0.00 | 69 | 1005.8 |
| 20260904104534 | 78 | 311 | 0.0 | 0.0 | 0.00 | 0.00 | 0.00 | 67 | 1005.8 |
| 20260904103038 | 78 | 311 | 0.0 | 0.0 | 0.00 | 0.00 | 0.00 | 66 | 1005.8 |
| 20260904101531 | 78 | 311 | 0.0 | 0.0 | 0.00 | 0.00 | 0.00 | 66 | 1005.8 |
| 20260904100031 | 78 | 310 | 0.0 | 0.0 | 0.00 | 0.00 | 0.00 | 66 | 1005.8 |
| 20260904094534 | 78 | 316 | 0.0 | 1.7 | 0.00 | 0.00 | 0.00 | 67 | 1005.7 |
| 20260904093030 | 78 | 314 | 0.9 | 2.6 | 0.00 | 0.00 | 0.00 | 67 | 1005.6 |
| 20260904091529 | 78 | 304 | 0.0 | 0.0 | 0.00 | 0.00 | 0.00 | 67 | 1005.7 |
| 20260904090028 | 78 | 319 | 0.9 | 1.7 | 0.00 | 0.00 | 0.00 | 67 | 1005.7 |